Date String (YYYY-MM-DD hh:mm:ss) UTC,Instrument flags,absolute air pressure of the measurement (hPa),sample flow rate (lpm),inlet stack bypass flow (lpm),air temperature of the measurement (°C),ambient temperature measured by the external sensor (°C),aerosol sample conditioner tube jacket temperature (°C),OPC LED temperature (°C),internal box temperature (°C),relative humidity of the measurement (%),span deviation,mass concentration of particles derived from Lorenz-Mie calculation of OPC scattering (μg/m³),mass concentration of particles derived from Lorenz-Mie calculation of OPC scattering (μg/m³),mass concentration of particles derived from Lorenz-Mie calculation of OPC scattering (μg/m³)
DateTimeUTC,F1_M11,P_M11,Q1_M11,Q2_M11,T1_M11,T2_M11,T3_M11,T4_M11,T5_M11,U1_M11,ZSPAN_M11,X0_M11,X2_M11,X1_M11
2023-12-06 06:00:00,SystemResetWarning,0835.5,4.99,000.00,025.3,024.4,000.0,033.8,026.6,13.1,0000.0,0007.98,0003.31,0003.02
2023-12-06 06:01:00,SystemResetWarning,0835.5,5.00,000.00,025.3,024.3,000.0,033.8,026.7,13.2,0000.0,0007.93,0003.26,0002.94
2023-12-06 06:02:00,SystemResetWarning,0835.5,5.01,000.00,025.3,024.3,000.0,033.8,026.6,13.2,0000.0,0007.94,0003.22,0002.84
2023-12-06 06:03:00,SystemResetWarning,0835.5,5.00,000.00,025.3,024.3,000.0,033.8,026.6,13.2,0000.0,0007.23,0003.14,0002.69
2023-12-06 06:04:00,SystemResetWarning,0835.5,4.98,000.00,025.3,024.3,000.0,033.8,026.6,13.2,0000.0,0006.58,0003.00,0002.51
2023-12-06 06:05:00,SystemResetWarning,0835.5,5.01,000.00,025.3,024.3,000.0,033.8,026.6,13.3,0000.0,0006.16,0002.83,0002.36
2023-12-06 06:06:00,SystemResetWarning,0835.5,5.01,000.00,025.3,024.3,000.0,033.8,026.6,13.3,0000.0,0005.77,0002.69,0002.26
2023-12-06 06:07:00,SystemResetWarning,0835.5,5.00,000.00,025.3,024.3,000.0,033.7,026.6,13.3,0000.0,0005.48,0002.48,0002.12
2023-12-06 06:08:00,SystemResetWarning,0835.5,4.99,000.00,025.3,024.3,000.0,033.7,026.6,13.2,0000.0,0005.24,0002.23,0001.91
2023-12-06 06:09:00,SystemResetWarning,0835.5,4.99,000.00,025.3,024.3,000.0,033.7,026.6,13.2,0000.0,0004.72,0001.97,0001.70
2023-12-06 06:10:00,SystemResetWarning,0835.5,5.01,000.00,025.3,024.3,000.0,033.7,026.6,13.3,0000.0,0002.96,0001.82,0001.56
2023-12-06 06:11:00,SystemResetWarning,0835.5,5.01,000.00,025.3,024.2,000.0,033.7,026.6,13.3,0000.0,0002.79,0001.72,0001.42
2023-12-06 06:12:00,SystemResetWarning,0835.5,4.99,000.00,025.3,024.2,000.0,033.7,026.6,13.3,0000.0,0002.52,0001.62,0001.32
2023-12-06 06:13:00,SystemResetWarning,0835.5,5.00,000.00,025.3,024.2,000.0,033.7,026.6,13.3,0000.0,0002.14,0001.46,0001.23
2023-12-06 06:14:00,SystemResetWarning,0835.5,5.00,000.00,025.2,024.2,000.0,033.7,026.6,13.4,0000.0,0002.08,0001.43,0001.22
2023-12-06 06:15:00,SystemResetWarning,0835.5,5.00,000.00,025.2,024.2,000.0,033.7,026.6,13.4,0000.0,0002.85,0001.47,0001.27
2023-12-06 06:16:00,SystemResetWarning,0835.5,5.00,000.00,025.2,024.2,000.0,033.7,026.6,13.4,0000.0,0003.21,0001.53,0001.28
2023-12-06 06:17:00,SystemResetWarning,0835.5,5.01,000.00,025.2,024.2,000.0,033.7,026.5,13.5,0000.0,0003.29,0001.51,0001.24
2023-12-06 06:18:00,SystemResetWarning,0835.5,5.00,000.00,025.2,024.2,000.0,033.7,026.5,13.6,0000.0,0003.32,0001.48,0001.21
2023-12-06 06:19:00,SystemResetWarning,0835.5,5.00,000.00,025.2,024.2,000.0,033.7,026.5,13.5,0000.0,0003.22,0001.47,0001.22
2023-12-06 06:20:00,SystemResetWarning,0835.5,5.00,000.00,025.2,024.2,000.0,033.7,026.5,13.5,0000.0,0003.35,0001.49,0001.23
2023-12-06 06:21:00,SystemResetWarning,0835.5,5.00,000.00,025.2,024.2,000.0,033.7,026.5,13.4,0000.0,0003.50,0001.54,0001.26
2023-12-06 06:22:00,SystemResetWarning,0835.5,4.99,000.00,025.2,024.2,000.0,033.7,026.5,13.4,0000.0,0003.44,0001.54,0001.28
2023-12-06 06:23:00,SystemResetWarning,0835.5,5.00,000.00,025.2,024.2,000.0,033.6,026.5,13.4,0000.0,0003.44,0001.57,0001.32
2023-12-06 06:24:00,SystemResetWarning,0835.5,5.00,000.00,025.2,024.2,000.0,033.6,026.5,13.4,0000.0,0003.53,0001.62,0001.36
2023-12-06 06:25:00,SystemResetWarning,0835.5,5.00,000.00,025.2,024.2,000.0,033.6,026.5,13.2,0000.0,0003.46,0001.65,0001.39
2023-12-06 06:26:00,SystemResetWarning,0835.5,5.00,000.00,025.2,024.2,000.0,033.6,026.5,13.1,0000.0,0002.80,0001.74,0001.48
2023-12-06 06:27:00,SystemResetWarning,0835.5,5.00,000.00,025.2,024.2,000.0,033.6,026.4,13.1,0000.0,0002.59,0001.80,0001.56
2023-12-06 06:28:00,SystemResetWarning,0835.5,5.00,000.00,025.2,024.2,000.0,033.6,026.5,13.1,0000.0,0002.62,0001.88,0001.65
2023-12-06 06:29:00,SystemResetWarning,0835.5,5.00,000.00,025.2,024.1,000.0,033.6,026.5,13.1,0000.0,0002.69,0001.94,0001.71
2023-12-06 06:30:00,SystemResetWarning,0835.5,5.00,000.00,025.2,024.1,000.0,033.6,026.5,13.0,0000.0,0002.66,0001.97,0001.75
2023-12-06 06:31:00,SystemResetWarning,0835.5,5.00,000.00,025.2,024.1,000.0,033.6,026.5,13.0,0000.0,0003.00,0002.03,0001.81
2023-12-06 06:32:00,SystemResetWarning,0835.4,5.00,000.00,025.1,024.1,000.0,033.6,026.5,13.1,0000.0,0003.31,0002.09,0001.86
2023-12-06 06:33:00,SystemResetWarning,0835.4,5.00,000.00,025.1,024.1,000.0,033.6,026.5,13.1,0000.0,0003.25,0002.09,0001.86
2023-12-06 06:34:00,SystemResetWarning,0835.4,5.00,000.00,025.1,024.1,000.0,033.6,026.4,13.1,0000.0,0003.21,0002.05,0001.82
2023-12-06 06:35:00,SystemResetWarning,0835.4,5.00,000.00,025.1,024.1,000.0,033.6,026.4,13.2,0000.0,0003.14,0001.96,0001.73
2023-12-06 06:36:00,SystemResetWarning,0835.4,4.99,000.00,025.1,024.1,000.0,033.6,026.4,13.2,0000.0,0003.14,0001.88,0001.62
2023-12-06 06:37:00,SystemResetWarning,0835.4,5.00,000.00,025.1,024.1,000.0,033.6,026.4,13.2,0000.0,0002.94,0001.70,0001.47
2023-12-06 06:38:00,SystemResetWarning,0835.4,5.02,000.00,025.1,024.1,000.0,033.5,026.4,13.3,0000.0,0002.71,0001.51,0001.31
2023-12-06 06:39:00,SystemResetWarning,0835.3,5.01,000.00,025.1,024.1,000.0,033.5,026.4,13.3,0000.0,0002.53,0001.34,0001.16
2023-12-06 06:40:00,SystemResetWarning,0835.3,4.99,000.00,025.1,024.1,000.0,033.5,026.4,13.4,0000.0,0002.47,0001.22,0001.03
2023-12-06 06:41:00,SystemResetWarning,0835.3,5.00,000.00,025.1,024.1,000.0,033.5,026.4,13.4,0000.0,0002.44,0001.15,0000.95
2023-12-06 06:42:00,SystemResetWarning,0835.4,5.00,000.00,025.1,024.1,000.0,033.5,026.4,13.4,0000.0,0002.16,0001.10,0000.88
2023-12-06 06:43:00,SystemResetWarning,0835.4,5.00,000.00,025.1,024.1,000.0,033.5,026.4,13.4,0000.0,0001.58,0000.98,0000.79
2023-12-06 06:44:00,SystemResetWarning,0835.3,5.00,000.00,025.1,024.1,000.0,033.5,026.4,13.3,0000.0,0001.51,0000.92,0000.74
2023-12-06 06:45:00,SystemResetWarning,0835.3,5.01,000.00,025.1,024.1,000.0,033.5,026.4,13.3,0000.0,0001.68,0000.95,0000.73
2023-12-06 06:46:00,SystemResetWarning,0835.3,5.01,000.00,025.1,024.1,000.0,033.5,026.4,13.3,0000.0,0001.66,0000.96,0000.76
2023-12-06 06:47:00,SystemResetWarning,0835.3,5.00,000.00,025.1,024.1,000.0,033.5,026.4,13.3,0000.0,0001.63,0000.99,0000.80
2023-12-06 06:48:00,SystemResetWarning,0835.3,5.00,000.00,025.0,024.1,000.0,033.5,026.3,13.3,0000.0,0001.78,0001.10,0000.88
2023-12-06 06:49:00,SystemResetWarning,0835.3,5.00,000.00,025.0,024.0,000.0,033.5,026.3,13.4,0000.0,0001.99,0001.22,0000.95
2023-12-06 06:50:00,SystemResetWarning,0835.3,5.00,000.00,025.0,024.0,000.0,033.5,026.3,13.4,0000.0,0002.72,0001.37,0001.05
2023-12-06 06:51:00,SystemResetWarning,0835.3,5.00,000.00,025.0,024.0,000.0,033.5,026.3,13.3,0000.0,0002.95,0001.50,0001.17
2023-12-06 06:52:00,SystemResetWarning,0835.3,5.00,000.00,025.0,024.0,000.0,033.5,026.3,13.3,0000.0,0003.07,0001.62,0001.29
2023-12-06 06:53:00,SystemResetWarning,0835.4,5.00,000.00,025.0,024.0,000.0,033.5,026.3,13.3,0000.0,0003.25,0001.71,0001.35
2023-12-06 06:54:00,SystemResetWarning,0835.3,5.00,000.00,025.0,023.9,000.0,033.4,026.3,13.4,0000.0,0003.25,0001.73,0001.38
2023-12-06 06:55:00,SystemResetWarning,0835.3,5.00,000.00,025.0,023.9,000.0,033.4,026.3,13.4,0000.0,0003.35,0001.77,0001.40
2023-12-06 06:56:00,SystemResetWarning,0835.2,5.00,000.00,025.0,024.0,000.0,033.4,026.3,13.4,0000.0,0003.23,0001.76,0001.40
2023-12-06 06:57:00,SystemResetWarning,0835.2,5.01,000.00,025.0,024.0,000.0,033.4,026.3,13.4,0000.0,0003.23,0001.78,0001.42
2023-12-06 06:58:00,SystemResetWarning,0835.2,4.99,000.00,025.0,024.0,000.0,033.4,026.3,13.4,0000.0,0003.36,0001.85,0001.45
2023-12-06 06:59:00,SystemResetWarning,0835.2,5.00,000.00,025.0,023.9,000.0,033.4,026.3,13.4,0000.0,0003.33,0001.84,0001.46
